When you browse on this site, cookies collect data to enhance your experience and personalize the content and advertising you see.
Visit our Privacy Policy to learn more. By continuing to use the site, you agree to this use of cookies and data.
  • In Hungary
  • List of Countries
  • For 7 days
  • Water Temperature
  • Satellite Maps
  • Weather Map
  • News
  • Weather Widgets
  • user-avatar
    Login

    Hourly Weather Zenica

    Today, 16 December, Sunday

    Time Temperature Precipitation Wind Pressure Humidity
    00:00 -10°C° 0 mm 2 mps 674 mmHg 95%
    01:00 -9°C° 0 mm 2 mps 674 mmHg 94%
    02:00 -9°C° 0 mm 2 mps 674 mmHg 94%
    03:00 -10°C° 0 mm 2 mps 674 mmHg 94%
    04:00 -10°C° 0 mm 2 mps 674 mmHg 94%
    05:00 -9°C° 0 mm 1 mps 674 mmHg 94%
    06:00 -9°C° 0 mm 1 mps 674 mmHg 94%
    07:00 -10°C° 0 mm 1 mps 674 mmHg 94%
    08:00 -8°C° 0 mm 1 mps 675 mmHg 90%
    09:00 -7°C° 0 mm 1 mps 676 mmHg 86%
    10:00 -4°C° 0 mm 1 mps 676 mmHg 83%
    11:00 -3°C° 0 mm 1 mps 676 mmHg 80%
    12:00 -2°C° 0 mm 1 mps 676 mmHg 78%
    13:00 -2°C° 0 mm 0 mps 677 mmHg 75%
    14:00 -3°C° 0 mm 0 mps 676 mmHg 78%
    15:00 -3°C° 0 mm 1 mps 676 mmHg 81%
    16:00 -6°C° 0 mm 1 mps 675 mmHg 84%
    17:00 -6°C° 0 mm 1 mps 676 mmHg 81%
    18:00 -6°C° 0 mm 1 mps 676 mmHg 79%
    19:00 -7°C° 0 mm 1 mps 676 mmHg 77%
    20:00 -6°C° 0 mm 1 mps 676 mmHg 74%
    21:00 -6°C° 0 mm 1 mps 676 mmHg 71%
    22:00 -6°C° 0 mm 1 mps 676 mmHg 68%
    23:00 -6°C° 0 mm 1 mps 676 mmHg 67%

    Tomorrow, 17 December, Monday

    Time Temperature Precipitation Wind Pressure Humidity
    00:00 -4°C° 0 mm 1 mps 676 mmHg 66%
    01:00 -4°C° 0 mm 1 mps 676 mmHg 66%
    02:00 -4°C° 0 mm 1 mps 675 mmHg 66%
    03:00 -3°C° 0 mm 1 mps 675 mmHg 67%
    04:00 -3°C° 0 mm 1 mps 675 mmHg 67%
    05:00 -3°C° 0 mm 1 mps 675 mmHg 69%
    06:00 -3°C° 0 mm 1 mps 675 mmHg 71%
    07:00 -3°C° 0 mm 1 mps 675 mmHg 72%
    08:00 -3°C° 0.1 mm 1 mps 676 mmHg 76%
    09:00 -2°C° 0.1 mm 1 mps 676 mmHg 81%
    10:00 -2°C° 0.1 mm 1 mps 676 mmHg 85%
    11:00 -2°C° 0.3 mm 1 mps 676 mmHg 86%
    12:00 -4°C° 0.3 mm 2 mps 676 mmHg 87%
    13:00 -4°C° 0.3 mm 2 mps 676 mmHg 89%
    14:00 -5°C° 0.1 mm 2 mps 676 mmHg 90%
    15:00 -5°C° 0.1 mm 2 mps 676 mmHg 91%
    16:00 -5°C° 0.1 mm 2 mps 676 mmHg 92%
    17:00 -6°C° 0 mm 2 mps 676 mmHg 92%
    18:00 -6°C° 0 mm 2 mps 677 mmHg 92%
    19:00 -8°C° 0 mm 3 mps 677 mmHg 92%
    20:00 -8°C° 0 mm 3 mps 677 mmHg 92%
    21:00 -8°C° 0 mm 2 mps 677 mmHg 92%
    22:00 -8°C° 0 mm 2 mps 677 mmHg 92%
    23:00 -9°C° 0 mm 2 mps 678 mmHg 92%

    Day after tomorrow, 18 December, Tuesday

    Time Temperature Precipitation Wind Pressure Humidity
    00:00 -9°C° 0 mm 2 mps 678 mmHg 92%
    01:00 -9°C° 0 mm 2 mps 678 mmHg 92%
    02:00 -9°C° 0 mm 2 mps 678 mmHg 91%
    03:00 -9°C° 0 mm 2 mps 678 mmHg 91%
    04:00 -9°C° 0 mm 2 mps 678 mmHg 91%
    05:00 -9°C° 0 mm 2 mps 679 mmHg 91%
    06:00 -9°C° 0 mm 2 mps 679 mmHg 90%
    07:00 -9°C° 0 mm 2 mps 679 mmHg 90%
    08:00 -8°C° 0 mm 2 mps 680 mmHg 87%
    09:00 -6°C° 0 mm 2 mps 681 mmHg 85%
    10:00 -5°C° 0 mm 2 mps 681 mmHg 82%
    11:00 -4°C° 0 mm 2 mps 681 mmHg 81%
    12:00 -3°C° 0 mm 2 mps 681 mmHg 81%
    13:00 -2°C° 0 mm 2 mps 681 mmHg 80%
    14:00 -3°C° 0 mm 2 mps 681 mmHg 84%
    15:00 -5°C° 0 mm 2 mps 681 mmHg 87%
    16:00 -4°C° 0 mm 1 mps 681 mmHg 90%
    17:00 -6°C° 0 mm 1 mps 681 mmHg 90%
    18:00 -6°C° 0 mm 1 mps 681 mmHg 89%
    19:00 -7°C° 0 mm 1 mps 680 mmHg 89%
    20:00 -7°C° 0 mm 1 mps 680 mmHg 87%
    21:00 -7°C° 0 mm 1 mps 680 mmHg 85%
    22:00 -7°C° 0 mm 1 mps 680 mmHg 84%
    23:00 -7°C° 0 mm 1 mps 680 mmHg 81%

    19 December, Wednesday

    Time Temperature Precipitation Wind Pressure Humidity
    00:00 -7°C° 0 mm 1 mps 680 mmHg 79%
    01:00 -7°C° 0 mm 1 mps 679 mmHg 76%
    02:00 -7°C° 0 mm 1 mps 679 mmHg 73%
    03:00 -6°C° 0 mm 1 mps 679 mmHg 71%
    04:00 -6°C° 0 mm 1 mps 679 mmHg 68%
    05:00 -6°C° 0 mm 1 mps 679 mmHg 66%
    06:00 -6°C° 0 mm 1 mps 679 mmHg 63%
    07:00 -6°C° 0 mm 1 mps 679 mmHg 60%
    08:00 -3°C° 0 mm 1 mps 679 mmHg 63%
    09:00 -1°C° 0 mm 1 mps 680 mmHg 65%
    10:00 +1°C° 0 mm 1 mps 681 mmHg 67%
    11:00 +2°C° 0 mm 1 mps 681 mmHg 71%
    12:00 +2°C° 0 mm 1 mps 680 mmHg 75%
    13:00 +2°C° 0 mm 0 mps 680 mmHg 79%
    14:00 +1°C° 0 mm 0 mps 680 mmHg 78%
    15:00 -1°C° 0 mm 0 mps 680 mmHg 76%
    16:00 -2°C° 0 mm 0 mps 679 mmHg 75%
    17:00 -2°C° 0 mm 1 mps 679 mmHg 73%
    18:00 -2°C° 0 mm 1 mps 679 mmHg 72%
    19:00 -2°C° 0 mm 1 mps 679 mmHg 70%
    20:00 -2°C° 0 mm 1 mps 679 mmHg 70%
    21:00 -2°C° 0 mm 1 mps 679 mmHg 69%
    22:00 -2°C° 0 mm 1 mps 680 mmHg 69%
    23:00 -2°C° 0 mm 1 mps 679 mmHg 69%

    20 December, Thursday

    Time Temperature Precipitation Wind Pressure Humidity
    00:00 -2°C° 0 mm 1 mps 679 mmHg 69%
    01:00 -2°C° 0 mm 1 mps 679 mmHg 69%
    02:00 -4°C° 0 mm 2 mps 679 mmHg 70%
    03:00 -4°C° 0 mm 2 mps 678 mmHg 71%
    04:00 -4°C° 0 mm 2 mps 678 mmHg 71%
    05:00 -4°C° 0 mm 2 mps 678 mmHg 72%
    06:00 -3°C° 0 mm 2 mps 678 mmHg 73%
    07:00 -3°C° 0 mm 2 mps 678 mmHg 73%
    08:00 0°C° 0 mm 1 mps 679 mmHg 76%
    09:00 +1°C° 0 mm 1 mps 679 mmHg 80%
    10:00 +2°C° 0 mm 1 mps 679 mmHg 83%
    11:00 +2°C° 0 mm 1 mps 679 mmHg 85%
    12:00 +3°C° 0 mm 1 mps 679 mmHg 88%
    13:00 +3°C° 0 mm 1 mps 678 mmHg 91%
    14:00 +2°C° 0 mm 1 mps 678 mmHg 91%
    15:00 +2°C° 0 mm 1 mps 678 mmHg 91%
    16:00 +1°C° 0 mm 1 mps 678 mmHg 91%
    17:00 +1°C° 0.5 mm 1 mps 678 mmHg 91%
    18:00 +1°C° 0.5 mm 1 mps 678 mmHg 92%
    19:00 +1°C° 0.5 mm 1 mps 678 mmHg 93%
    20:00 0°C° 1.5 mm 1 mps 678 mmHg 94%
    21:00 0°C° 1.5 mm 1 mps 678 mmHg 94%
    22:00 0°C° 1.5 mm 1 mps 677 mmHg 95%
    23:00 -1°C° 0.7 mm 1 mps 678 mmHg 96%

    21 December, Friday

    Time Temperature Precipitation Wind Pressure Humidity
    00:00 -1°C° 0.7 mm 1 mps 678 mmHg 96%
    01:00 -1°C° 0.7 mm 1 mps 678 mmHg 96%
    02:00 -2°C° 0.2 mm 1 mps 678 mmHg 96%
    03:00 -2°C° 0.2 mm 1 mps 678 mmHg 96%
    04:00 -2°C° 0.2 mm 1 mps 678 mmHg 96%
    05:00 -3°C° 0.2 mm 1 mps 678 mmHg 96%
    06:00 -3°C° 0.2 mm 1 mps 679 mmHg 95%
    07:00 -3°C° 0.2 mm 1 mps 679 mmHg 95%
    08:00 -2°C° 0.1 mm 1 mps 679 mmHg 93%
    09:00 -2°C° 0.1 mm 1 mps 680 mmHg 92%
    10:00 -1°C° 0.1 mm 1 mps 680 mmHg 90%
    11:00 0°C° 0 mm 1 mps 680 mmHg 91%
    12:00 0°C° 0 mm 1 mps 680 mmHg 91%
    13:00 +1°C° 0 mm 1 mps 680 mmHg 91%
    14:00 0°C° 0 mm 1 mps 680 mmHg 92%
    15:00 -1°C° 0 mm 1 mps 680 mmHg 92%
    16:00 -2°C° 0 mm 0 mps 680 mmHg 93%
    17:00 -2°C° 0 mm 1 mps 680 mmHg 93%
    18:00 -3°C° 0 mm 1 mps 680 mmHg 92%
    19:00 -4°C° 0 mm 1 mps 680 mmHg 91%
    20:00 -3°C° 0 mm 1 mps 680 mmHg 89%
    21:00 -3°C° 0 mm 1 mps 680 mmHg 87%
    22:00 -3°C° 0 mm 1 mps 680 mmHg 85%
    23:00 -3°C° 0 mm 1 mps 680 mmHg 82%
    Show more